| time (UTC) | temp C | wind direction | speed KPH | gust KPH | rain 1hr cm | rain 24hr cm | rain mn cm | humidity % | barometer mb |
| 20260506204143 | 21 | 43 | 3.2 | 14.5 | 0.00 | 0.00 | 0.00 | 37 | 935.6 |
| 20260506203122 | 21 | 12 | 1.6 | 9.7 | 0.00 | 0.00 | 0.00 | 36 | 935.8 |
| 20260506202123 | 20 | 30 | 1.6 | 9.7 | 0.00 | 0.00 | 0.00 | 37 | 936.0 |
| 20260506201126 | 20 | 36 | 3.2 | 12.9 | 0.00 | 0.00 | 0.00 | 37 | 936.2 |
| 20260506200124 | 19 | 16 | 3.2 | 11.3 | 0.00 | 0.00 | 0.00 | 39 | 936.2 |
| 20260506195122 | 19 | 31 | 3.2 | 11.3 | 0.00 | 0.00 | 0.00 | 39 | 936.2 |
| 20260506194122 | 18 | 53 | 0.0 | 4.8 | 0.00 | 0.00 | 0.00 | 41 | 936.5 |
| 20260506193123 | 18 | 34 | 1.6 | 9.7 | 0.00 | 0.00 | 0.00 | 40 | 936.7 |
| 20260506192123 | 18 | 14 | 1.6 | 6.4 | 0.00 | 0.00 | 0.00 | 39 | 936.8 |
| 20260506191143 | 19 | 28 | 1.6 | 8.0 | 0.00 | 0.00 | 0.00 | 37 | 936.9 |
| 20260506190125 | 19 | 32 | 1.6 | 12.9 | 0.00 | 0.00 | 0.00 | 38 | 937.0 |
| 20260506185127 | 18 | 43 | 3.2 | 12.9 | 0.00 | 0.00 | 0.00 | 38 | 937.0 |
| 20260506184127 | 18 | 25 | 1.6 | 8.0 | 0.00 | 0.00 | 0.00 | 39 | 937.1 |
| 20260506183124 | 17 | 22 | 1.6 | 8.0 | 0.00 | 0.00 | 0.00 | 41 | 937.2 |
| 20260506182143 | 17 | 52 | 1.6 | 9.7 | 0.00 | 0.00 | 0.00 | 43 | 937.4 |
| 20260506181123 | 16 | 32 | 1.6 | 8.0 | 0.00 | 0.00 | 0.00 | 44 | 937.6 |
| 20260506180122 | 16 | 24 | 1.6 | 9.7 | 0.00 | 0.00 | 0.00 | 43 | 937.7 |
| 20260506175122 | 16 | 228 | 1.6 | 12.9 | 0.00 | 0.00 | 0.00 | 43 | 937.7 |
| 20260506174122 | 16 | 338 | 0.0 | 0.0 | 0.00 | 0.00 | 0.00 | 44 | 937.7 |
| 20260506173122 | 15 | 45 | 0.0 | 4.8 | 0.00 | 0.00 | 0.00 | 46 | 938.1 |
| 20260506172123 | 15 | 23 | 1.6 | 11.3 | 0.00 | 0.00 | 0.00 | 44 | 938.2 |
| 20260506171123 | 15 | 23 | 0.0 | 3.2 | 0.00 | 0.00 | 0.00 | 45 | 938.2 |
| 20260506170144 | 15 | 41 | 1.6 | 11.3 | 0.00 | 0.00 | 0.00 | 46 | 938.4 |
| 20260506165123 | 14 | 16 | 1.6 | 12.9 | 0.00 | 0.00 | 0.00 | 48 | 938.4 |
| 20260506164123 | 13 | 5 | 1.6 | 11.3 | 0.00 | 0.00 | 0.00 | 49 | 938.5 |
| 20260506163146 | 13 | 346 | 1.6 | 9.7 | 0.00 | 0.00 | 0.00 | 49 | 938.5 |
| 20260506162122 | 13 | 175 | 1.6 | 9.7 | 0.00 | 0.00 | 0.00 | 50 | 938.8 |
| 20260506161149 | 12 | 50 | 0.0 | 9.7 | 0.00 | 0.00 | 0.00 | 52 | 939.0 |
| 20260506161145 | 12 | 43 | 1.6 | 9.7 | 0.00 | 0.00 | 0.00 | 52 | 939.0 |
| 20260506160125 | 12 | 214 | 1.6 | 6.4 | 0.00 | 0.00 | 0.00 | 53 | 939.2 |
| 20260506155143 | 12 | 349 | 0.0 | 4.8 | 0.00 | 0.00 | 0.00 | 55 | 939.2 |
| 20260506154123 | 11 | 59 | 0.0 | 6.4 | 0.00 | 0.00 | 0.00 | 57 | 939.4 |
| 20260506153122 | 10 | 203 | 0.0 | 0.0 | 0.00 | 0.00 | 0.00 | 59 | 939.4 |
| 20260506152122 | 10 | 45 | 0.0 | 0.0 | 0.00 | 0.00 | 0.00 | 63 | 939.4 |
| 20260506151127 | 9 | 68 | 0.0 | 0.0 | 0.00 | 0.00 | 0.00 | 64 | 939.6 |
| 20260506150144 | 8 | 203 | 0.0 | 0.0 | 0.00 | 0.00 | 0.00 | 67 | 939.5 |
| 20260506145122 | 8 | 270 | 0.0 | 0.0 | 0.00 | 0.00 | 0.00 | 67 | 939.5 |
| 20260506144122 | 7 | 270 | 0.0 | 0.0 | 0.00 | 0.00 | 0.00 | 66 | 939.6 |
| 20260506143122 | 7 | 203 | 0.0 | 0.0 | 0.00 | 0.00 | 0.00 | 69 | 939.6 |
| 20260506142143 | 6 | 203 | 0.0 | 0.0 | 0.00 | 0.00 | 0.00 | 70 | 939.7 |
| 20260506141122 | 6 | 270 | 0.0 | 0.0 | 0.00 | 0.00 | 0.00 | 72 | 939.6 |
| 20260506140143 | 6 | 203 | 0.0 | 0.0 | 0.00 | 0.00 | 0.00 | 73 | 939.6 |
| 20260506135122 | 6 | 270 | 0.0 | 0.0 | 0.00 | 0.00 | 0.00 | 73 | 939.6 |
| 20260506134124 | 6 | 180 | 0.0 | 0.0 | 0.00 | 0.00 | 0.00 | 72 | 939.6 |
| 20260506133125 | 6 | 225 | 0.0 | 0.0 | 0.00 | 0.00 | 0.00 | 70 | 939.4 |
| 20260506132126 | 6 | 180 | 0.0 | 0.0 | 0.00 | 0.00 | 0.00 | 70 | 939.2 |
| 20260506131143 | 6 | 180 | 0.0 | 0.0 | 0.00 | 0.00 | 0.00 | 71 | 939.2 |
| 20260506130122 | 6 | 23 | 0.0 | 0.0 | 0.00 | 0.00 | 0.00 | 71 | 939.2 |
| 20260506125122 | 5 | 45 | 0.0 | 0.0 | 0.00 | 0.00 | 0.00 | 71 | 939.2 |
| 20260506124122 | 5 | 180 | 0.0 | 0.0 | 0.00 | 0.00 | 0.00 | 71 | 939.2 |
| 20260506123143 | 5 | 90 | 0.0 | 0.0 | 0.00 | 0.00 | 0.00 | 70 | 939.0 |
| 20260506122124 | 6 | 315 | 0.0 | 0.0 | 0.00 | 0.00 | 0.00 | 69 | 938.9 |
| 20260506121144 | 6 | 180 | 0.0 | 0.0 | 0.00 | 0.00 | 0.00 | 68 | 938.9 |
| 20260506120125 | 6 | 45 | 0.0 | 0.0 | 0.00 | 0.00 | 0.00 | 68 | 938.9 |
| 20260506115122 | 6 | 180 | 0.0 | 0.0 | 0.00 | 0.00 | 0.00 | 66 | 938.9 |
| 20260506114122 | 6 | 225 | 0.0 | 0.0 | 0.00 | 0.00 | 0.00 | 68 | 938.9 |
| 20260506113122 | 6 | 68 | 0.0 | 0.0 | 0.00 | 0.00 | 0.00 | 67 | 938.8 |
| 20260506112122 | 6 | 180 | 0.0 | 0.0 | 0.00 | 0.00 | 0.00 | 66 | 938.8 |
| 20260506111122 | 6 | 225 | 0.0 | 0.0 | 0.00 | 0.00 | 0.00 | 66 | 938.8 |
| 20260506110122 | 6 | 180 | 0.0 | 0.0 | 0.00 | 0.00 | 0.00 | 65 | 938.7 |
| 20260506105122 | 6 | 203 | 0.0 | 0.0 | 0.00 | 0.00 | 0.00 | 64 | 938.7 |
| 20260506104125 | 6 | 158 | 0.0 | 0.0 | 0.00 | 0.00 | 0.00 | 64 | 938.6 |
| 20260506103122 | 7 | 180 | 0.0 | 0.0 | 0.00 | 0.00 | 0.00 | 64 | 938.7 |
| 20260506102143 | 7 | 135 | 0.0 | 0.0 | 0.00 | 0.00 | 0.00 | 63 | 938.6 |
| 20260506101122 | 7 | 45 | 0.0 | 0.0 | 0.00 | 0.00 | 0.00 | 61 | 938.7 |
| 20260506100122 | 7 | 203 | 0.0 | 0.0 | 0.00 | 0.00 | 0.00 | 62 | 938.8 |
| 20260506095122 | 7 | 113 | 0.0 | 0.0 | 0.00 | 0.00 | 0.00 | 61 | 938.8 |
| 20260506094122 | 7 | 45 | 0.0 | 0.0 | 0.00 | 0.00 | 0.00 | 60 | 938.6 |
| 20260506093122 | 7 | 248 | 0.0 | 0.0 | 0.00 | 0.00 | 0.00 | 58 | 938.5 |
| 20260506092122 | 7 | 203 | 0.0 | 0.0 | 0.00 | 0.00 | 0.00 | 58 | 938.5 |
| 20260506091122 | 7 | 135 | 0.0 | 0.0 | 0.00 | 0.00 | 0.00 | 58 | 938.5 |
| 20260506090122 | 7 | 90 | 0.0 | 0.0 | 0.00 | 0.00 | 0.00 | 57 | 938.5 |
| 20260506085143 | 8 | 113 | 0.0 | 0.0 | 0.00 | 0.00 | 0.00 | 56 | 938.5 |
| 20260506084122 | 8 | 225 | 0.0 | 0.0 | 0.00 | 0.00 | 0.00 | 57 | 938.4 |
| 20260506083122 | 8 | 180 | 0.0 | 0.0 | 0.00 | 0.00 | 0.00 | 55 | 938.4 |
| 20260506082122 | 8 | 113 | 0.0 | 0.0 | 0.00 | 0.00 | 0.00 | 56 | 938.2 |
| 20260506081122 | 8 | 180 | 0.0 | 0.0 | 0.00 | 0.00 | 0.00 | 55 | 938.1 |
| 20260506080147 | 8 | 180 | 0.0 | 0.0 | 0.00 | 0.00 | 0.00 | 56 | 937.9 |
| 20260506073122 | 9 | 180 | 0.0 | 0.0 | 0.00 | 0.00 | 0.00 | 52 | 937.9 |
| 20260506072122 | 9 | 180 | 0.0 | 0.0 | 0.00 | 0.00 | 0.00 | 51 | 937.7 |
| 20260506071122 | 9 | 203 | 0.0 | 0.0 | 0.00 | 0.00 | 0.00 | 51 | 937.7 |
| 20260506070122 | 10 | 135 | 0.0 | 0.0 | 0.00 | 0.00 | 0.00 | 51 | 937.7 |
| 20260506062122 | 10 | 180 | 0.0 | 0.0 | 0.00 | 0.00 | 0.00 | 49 | 937.4 |
| 20260506061122 | 10 | 180 | 0.0 | 0.0 | 0.00 | 0.00 | 0.00 | 49 | 937.2 |
| 20260506060122 | 10 | 158 | 0.0 | 0.0 | 0.00 | 0.00 | 0.00 | 48 | 937.2 |
| 20260506051125 | 11 | 113 | 0.0 | 0.0 | 0.00 | 0.00 | 0.00 | 46 | 937.1 |
| 20260506050122 | 11 | 225 | 0.0 | 0.0 | 0.00 | 0.00 | 0.00 | 46 | 937.0 |
| 20260506045122 | 12 | 90 | 0.0 | 0.0 | 0.00 | 0.00 | 0.00 | 45 | 937.0 |
| 20260506044122 | 12 | 90 | 0.0 | 0.0 | 0.00 | 0.00 | 0.00 | 46 | 936.9 |
| 20260506043122 | 12 | 113 | 0.0 | 0.0 | 0.00 | 0.00 | 0.00 | 45 | 936.7 |
| 20260506042122 | 13 | 180 | 0.0 | 0.0 | 0.00 | 0.00 | 0.00 | 44 | 936.6 |
| 20260506041122 | 13 | 113 | 0.0 | 0.0 | 0.00 | 0.00 | 0.00 | 43 | 936.4 |
| 20260506040126 | 13 | 135 | 0.0 | 0.0 | 0.00 | 0.00 | 0.00 | 42 | 936.4 |
| 20260506035126 | 14 | 180 | 0.0 | 0.0 | 0.00 | 0.00 | 0.00 | 42 | 936.4 |
| 20260506034122 | 15 | 203 | 0.0 | 0.0 | 0.00 | 0.00 | 0.00 | 40 | 936.2 |
| 20260506033122 | 15 | 113 | 0.0 | 0.0 | 0.00 | 0.00 | 0.00 | 39 | 936.1 |
| 20260506032143 | 16 | 45 | 0.0 | 0.0 | 0.00 | 0.00 | 0.00 | 37 | 935.9 |
| 20260506031122 | 17 | 226 | 0.0 | 4.8 | 0.00 | 0.00 | 0.00 | 33 | 935.8 |
| 20260506030143 | 17 | 23 | 0.0 | 0.0 | 0.00 | 0.00 | 0.00 | 33 | 935.6 |
| 20260506025122 | 18 | 140 | 0.0 | 4.8 | 0.00 | 0.00 | 0.00 | 31 | 935.6 |
| 20260506024143 | 19 | 165 | 1.6 | 8.0 | 0.00 | 0.00 | 0.00 | 30 | 935.5 |
| 20260506023122 | 20 | 253 | 1.6 | 4.8 | 0.00 | 0.00 | 0.00 | 29 | 935.4 |
| 20260506022122 | 20 | 327 | 1.6 | 8.0 | 0.00 | 0.00 | 0.00 | 27 | 935.2 |
| 20260506021122 | 20 | 356 | 3.2 | 8.0 | 0.00 | 0.00 | 0.00 | 28 | 935.2 |
| 20260506020122 | 20 | 350 | 3.2 | 6.4 | 0.00 | 0.00 | 0.00 | 27 | 935.2 |
| 20260506015122 | 20 | 5 | 3.2 | 12.9 | 0.00 | 0.00 | 0.00 | 27 | 935.2 |
| 20260506014122 | 21 | 42 | 4.8 | 12.9 | 0.00 | 0.00 | 0.00 | 27 | 935.2 |
| 20260506013122 | 21 | 14 | 3.2 | 14.5 | 0.00 | 0.00 | 0.00 | 26 | 935.4 |
| 20260506012125 | 22 | 8 | 3.2 | 9.7 | 0.00 | 0.00 | 0.00 | 26 | 935.2 |
| 20260506011122 | 22 | 18 | 3.2 | 12.9 | 0.00 | 0.00 | 0.00 | 26 | 935.4 |
| 20260506010143 | 22 | 6 | 3.2 | 11.3 | 0.00 | 0.00 | 0.00 | 26 | 935.4 |
| 20260506005122 | 23 | 44 | 3.2 | 12.9 | 0.00 | 0.00 | 0.00 | 25 | 935.4 |
| 20260506004123 | 23 | 5 | 3.2 | 9.7 | 0.00 | 0.00 | 0.00 | 25 | 935.4 |
| 20260506003123 | 23 | 1 | 3.2 | 14.5 | 0.00 | 0.00 | 0.00 | 25 | 935.5 |
| 20260506002123 | 23 | 56 | 1.6 | 11.3 | 0.00 | 0.00 | 0.00 | 25 | 935.6 |
| 20260506001123 | 23 | 24 | 3.2 | 9.7 | 0.00 | 0.00 | 0.00 | 25 | 935.7 |
| 20260506000128 | 24 | 3 | 3.2 | 8.0 | 0.00 | 0.00 | 0.00 | 25 | 935.7 |
| 20260505235124 | 23 | 345 | 4.8 | 12.9 | 0.00 | 0.00 | 0.00 | 25 | 935.8 |
| 20260505234124 | 23 | 47 | 3.2 | 12.9 | 0.00 | 0.00 | 0.00 | 26 | 935.8 |
| 20260505233144 | 25 | 32 | 3.2 | 12.9 | 0.00 | 0.00 | 0.00 | 24 | 935.9 |
| 20260505232145 | 23 | 59 | 4.8 | 12.9 | 0.00 | 0.00 | 0.00 | 25 | 936.1 |
| 20260505231125 | 23 | 39 | 4.8 | 14.5 | 0.00 | 0.00 | 0.00 | 25 | 936.2 |
| 20260505230124 | 23 | 343 | 3.2 | 14.5 | 0.00 | 0.00 | 0.00 | 25 | 936.4 |
| 20260505225124 | 24 | 27 | 4.8 | 16.1 | 0.00 | 0.00 | 0.00 | 25 | 936.4 |
| 20260505224128 | 24 | 17 | 3.2 | 12.9 | 0.00 | 0.00 | 0.00 | 26 | 936.5 |
| 20260505223123 | 24 | 32 | 3.2 | 12.9 | 0.00 | 0.00 | 0.00 | 26 | 936.6 |
| 20260505222123 | 23 | 23 | 3.2 | 12.9 | 0.00 | 0.00 | 0.00 | 26 | 936.6 |
| 20260505221123 | 23 | 32 | 4.8 | 17.7 | 0.00 | 0.00 | 0.00 | 27 | 936.8 |
| 20260505220123 | 23 | 356 | 3.2 | 8.0 | 0.00 | 0.00 | 0.00 | 26 | 936.9 |
| 20260505215123 | 23 | 19 | 4.8 | 12.9 | 0.00 | 0.00 | 0.00 | 26 | 936.9 |
| 20260505214123 | 23 | 33 | 3.2 | 14.5 | 0.00 | 0.00 | 0.00 | 27 | 937.1 |
| 20260505213144 | 23 | 32 | 3.2 | 17.7 | 0.00 | 0.00 | 0.00 | 27 | 937.2 |
| 20260505212123 | 22 | 48 | 4.8 | 20.9 | 0.00 | 0.00 | 0.00 | 28 | 937.2 |
| 20260505211123 | 22 | 30 | 4.8 | 14.5 | 0.00 | 0.00 | 0.00 | 27 | 937.4 |
| 20260505210123 | 22 | 12 | 3.2 | 12.9 | 0.00 | 0.00 | 0.00 | 29 | 937.6 |
| 20260505205123 | 22 | 46 | 3.2 | 11.3 | 0.00 | 0.00 | 0.00 | 29 | 937.6 |